"Period start","avg(HW err(1)/warn(2) (#))","avg(Visibility (m))","avg(Weather code (#))","avg(Precip intensity (mm/h))","min(HW err(1)/warn(2) (#))","max(HW err(1)/warn(2) (#))","std(HW err(1)/warn(2) (#))","med(HW err(1)/warn(2) (#))","min(Visibility (m))","max(Visibility (m))","std(Visibility (m))","med(Visibility (m))","min(Weather code (#))","max(Weather code (#))","std(Weather code (#))","med(Weather code (#))","min(Precip intensity (mm/h))","max(Precip intensity (mm/h))","std(Precip intensity (mm/h))","med(Precip intensity (mm/h))"
2014-04-12 00:00:00,1,,,,1,1,0,1,,,,,,,,,,,,
2014-04-12 00:10:00,2,17986,,0.00,1,2,0,2,10264,23225,4331,18298,,,,,0.00,0.00,0.00,0.00
2014-04-12 00:20:00,1,,,,1,1,0,1,,,,,,,,,,,,
2014-04-12 00:30:00,1,0,,0.00,1,2,0,1,0,0,0,0,,,,,0.00,0.00,0.00,0.00
2014-04-12 00:40:00,2,18358,,0.00,1,2,0,2,15469,22510,2779,17356,,,,,0.00,0.00,0.00,0.00
2014-04-12 00:50:00,2,21610,0,0.00,2,2,0,2,16478,32075,4601,21010,0,0,0,0,0.00,0.00,0.00,0.00
2014-04-12 01:00:00,2,23278,0,0.00,2,2,0,2,15864,32962,5997,24742,0,0,0,0,0.00,0.00,0.00,0.00
2014-04-12 01:10:00,2,20102,0,0.00,2,2,0,2,14565,29294,3873,20690,0,0,0,0,0.00,0.00,0.00,0.00
2014-04-12 01:20:00,2,18065,0,0.00,1,2,0,2,0,23921,7306,20580,0,0,0,0,0.00,0.00,0.00,0.00
2014-04-12 01:30:00,1,0,,0.00,1,2,0,1,0,0,0,0,,,,,0.00,0.00,0.00,0.00
2014-04-12 01:40:00,2,0,,0.00,1,2,0,2,0,0,0,0,,,,,0.00,0.00,0.00,0.00
2014-04-12 01:50:00,1,11680,,0.00,1,2,0,1,0,29649,12498,8535,,,,,0.00,0.00,0.00,0.00
2014-04-12 02:00:00,2,22202,,0.00,1,2,0,2,15314,29655,5364,23750,,,,,0.00,0.00,0.00,0.00
2014-04-12 02:10:00,1,31960,0,0.00,1,2,0,1,25530,36015,3901,33148,0,0,0,0,0.00,0.00,0.00,0.00
2014-04-12 02:20:00,2,27375,0,0.00,1,2,0,2,17742,50000,10033,25064,0,0,0,0,0.00,0.00,0.00,0.00
2014-04-12 02:30:00,2,31417,0,0.00,2,2,0,2,20995,39948,6610,32566,0,0,0,0,0.00,0.00,0.00,0.00
2014-04-12 02:40:00,2,26136,0,0.00,2,2,0,2,15551,37253,6417,26033,0,0,0,0,0.00,0.00,0.00,0.00
2014-04-12 02:50:00,2,25687,0,0.00,2,2,0,2,18497,34245,4054,25076,0,0,0,0,0.00,0.00,0.00,0.00
2014-04-12 03:00:00,2,25111,0,0.00,2,2,0,2,18367,29651,3938,26339,0,0,0,0,0.00,0.00,0.00,0.00
2014-04-12 03:10:00,2,25526,0,0.00,2,2,0,2,16955,38578,6213,25124,0,0,0,0,0.00,0.00,0.00,0.00
2014-04-12 03:20:00,2,28611,0,0.00,2,2,0,2,17960,37081,5215,28715,0,0,0,0,0.00,0.00,0.00,0.00
2014-04-12 03:30:00,2,30078,0,0.00,2,2,0,2,19814,42548,6339,28249,0,0,0,0,0.00,0.00,0.00,0.00
2014-04-12 03:40:00,2,30948,0,0.00,2,2,0,2,17052,48796,9971,30228,0,0,0,0,0.00,0.00,0.00,0.00
2014-04-12 03:50:00,2,31940,0,0.00,2,2,0,2,19531,44122,8154,31037,0,0,0,0,0.00,0.00,0.00,0.00
2014-04-12 04:00:00,2,31608,0,0.00,2,2,0,2,19794,49252,9776,28504,0,0,0,0,0.00,0.00,0.00,0.00
2014-04-12 04:10:00,2,34318,0,0.00,2,2,0,2,26483,42162,4429,34882,0,0,0,0,0.00,0.00,0.00,0.00
2014-04-12 04:20:00,2,28597,0,0.00,2,2,0,2,19326,38172,6007,28404,0,0,0,0,0.00,0.00,0.00,0.00
2014-04-12 04:30:00,2,30615,0,0.00,2,2,0,2,23925,40136,4697,31783,0,0,0,0,0.00,0.00,0.00,0.00
2014-04-12 04:40:00,2,29120,0,0.00,2,2,0,2,19799,35257,4848,30280,0,0,0,0,0.00,0.00,0.00,0.00
2014-04-12 04:50:00,2,30634,0,0.00,2,2,0,2,22534,37556,4980,29672,0,0,0,0,0.00,0.00,0.00,0.00
2014-04-12 05:00:00,2,27544,0,0.00,2,2,0,2,19916,32594,4158,27518,0,0,0,0,0.00,0.00,0.00,0.00
2014-04-12 05:10:00,2,34986,0,0.00,2,2,0,2,19560,48240,7432,34342,0,0,0,0,0.00,0.00,0.00,0.00
2014-04-12 05:20:00,2,31250,0,0.00,2,2,0,2,18381,50000,8045,30558,0,0,0,0,0.00,0.00,0.00,0.00
2014-04-12 05:30:00,2,30814,0,0.00,2,2,0,2,25344,37935,4220,30970,0,0,0,0,0.00,0.00,0.00,0.00
2014-04-12 05:40:00,2,28483,0,0.00,2,2,0,2,22833,36579,4865,26732,0,0,0,0,0.00,0.00,0.00,0.00
2014-04-12 05:50:00,2,32846,0,0.00,2,2,0,2,24650,40034,4535,32700,0,0,0,0,0.00,0.00,0.00,0.00
2014-04-12 06:00:00,2,26899,0,0.00,2,2,0,2,21845,35169,3737,26138,0,0,0,0,0.00,0.00,0.00,0.00
2014-04-12 06:10:00,2,27290,0,0.00,2,2,0,2,18450,34670,5443,26142,0,0,0,0,0.00,0.00,0.00,0.00
2014-04-12 06:20:00,2,29775,0,0.00,2,2,0,2,21152,40836,6457,28138,0,0,0,0,0.00,0.00,0.00,0.00
2014-04-12 06:30:00,2,36073,0,0.00,2,2,0,2,26400,46150,7166,36138,0,0,0,0,0.00,0.00,0.00,0.00
2014-04-12 06:40:00,2,27952,0,0.00,2,2,0,2,20006,41579,6404,25378,0,0,0,0,0.00,0.00,0.00,0.00
2014-04-12 06:50:00,2,34612,0,0.00,2,2,0,2,25969,43568,5015,33874,0,0,0,0,0.00,0.00,0.00,0.00
2014-04-12 07:00:00,2,34370,0,0.00,2,2,0,2,28827,42413,5285,31600,0,0,0,0,0.00,0.00,0.00,0.00
2014-04-12 07:10:00,2,29213,0,0.00,2,2,0,2,20514,46403,7597,27577,0,0,0,0,0.00,0.00,0.00,0.00
2014-04-12 07:20:00,2,37766,0,0.00,2,2,0,2,26436,44956,6209,39594,0,0,0,0,0.00,0.00,0.00,0.00
2014-04-12 07:30:00,2,36382,0,0.00,2,2,0,2,29076,43505,5431,37689,0,0,0,0,0.00,0.00,0.00,0.00
2014-04-12 07:40:00,2,36418,0,0.00,2,2,0,2,25158,48321,7797,35178,0,0,0,0,0.00,0.00,0.00,0.00
2014-04-12 07:50:00,2,33346,0,0.00,2,2,0,2,23711,44163,7019,32784,0,0,0,0,0.00,0.00,0.00,0.00
2014-04-12 08:00:00,2,36995,0,0.00,2,2,0,2,31158,44448,5071,35666,0,0,0,0,0.00,0.00,0.00,0.00
2014-04-12 08:10:00,2,32726,0,0.00,2,2,0,2,28063,39109,3492,31682,0,0,0,0,0.00,0.00,0.00,0.00
2014-04-12 08:20:00,2,34284,0,0.00,2,2,0,2,28712,42046,4786,33418,0,0,0,0,0.00,0.00,0.00,0.00
2014-04-12 08:30:00,2,31932,0,0.00,2,2,0,2,26490,43355,5121,30254,0,0,0,0,0.00,0.00,0.00,0.00
2014-04-12 08:40:00,2,27650,0,0.00,2,2,0,2,24155,31771,2664,27599,0,0,0,0,0.00,0.00,0.00,0.00
2014-04-12 08:50:00,2,27363,0,0.00,2,2,0,2,22359,31806,2468,27868,0,0,0,0,0.00,0.00,0.00,0.00
2014-04-12 09:00:00,2,30578,0,0.00,2,2,0,2,27133,38912,3243,29736,0,0,0,0,0.00,0.00,0.00,0.00
2014-04-12 09:10:00,2,28168,0,0.00,2,2,0,2,22463,31984,3022,29113,0,0,0,0,0.00,0.00,0.00,0.00
2014-04-12 09:20:00,2,28760,0,0.00,2,2,0,2,23709,37553,3987,27958,0,0,0,0,0.00,0.00,0.00,0.00
2014-04-12 09:30:00,2,25067,0,0.00,2,2,0,2,23010,27319,1302,24982,0,0,0,0,0.00,0.00,0.00,0.00
2014-04-12 09:40:00,2,26731,0,0.00,2,2,0,2,22545,29590,1951,26708,0,0,0,0,0.00,0.00,0.00,0.00
2014-04-12 09:50:00,2,24901,0,0.00,2,2,0,2,22232,28022,1622,24771,0,0,0,0,0.00,0.00,0.00,0.00
2014-04-12 10:00:00,2,24794,0,0.00,2,2,0,2,23123,29192,1829,24010,0,0,0,0,0.00,0.00,0.00,0.00
2014-04-12 10:10:00,2,25354,0,0.00,2,2,0,2,21619,28398,1997,25523,0,0,0,0,0.00,0.00,0.00,0.00
2014-04-12 10:20:00,2,22457,0,0.00,2,2,0,2,19376,25081,1834,23292,0,0,0,0,0.00,0.00,0.00,0.00
2014-04-12 10:30:00,2,24670,0,0.00,2,2,0,2,21066,29898,2313,23874,0,0,0,0,0.00,0.00,0.00,0.00
2014-04-12 10:40:00,2,26215,0,0.00,2,2,0,2,22746,32274,2466,26234,0,0,0,0,0.00,0.00,0.00,0.00
2014-04-12 10:50:00,2,26424,0,0.00,2,2,0,2,23962,32164,2361,25334,0,0,0,0,0.00,0.00,0.00,0.00
2014-04-12 11:00:00,2,29472,0,0.00,2,2,0,2,26643,33533,1858,29316,0,0,0,0,0.00,0.00,0.00,0.00
2014-04-12 11:10:00,2,25848,0,0.00,2,2,0,2,20670,30646,3309,25978,0,0,0,0,0.00,0.00,0.00,0.00
2014-04-12 11:20:00,2,22953,0,0.00,2,2,0,2,21124,25631,1245,23163,0,0,0,0,0.00,0.00,0.00,0.00
2014-04-12 11:30:00,2,22393,0,0.00,2,2,0,2,21180,25846,1286,21922,0,0,0,0,0.00,0.00,0.00,0.00
2014-04-12 11:40:00,2,23253,0,0.00,2,2,0,2,21348,24943,1230,23626,0,0,0,0,0.00,0.00,0.00,0.00
2014-04-12 11:50:00,2,22990,0,0.00,2,2,0,2,19612,28188,2313,22285,0,0,0,0,0.00,0.00,0.00,0.00
2014-04-12 12:00:00,2,21161,0,0.00,2,2,0,2,17245,23583,1750,21634,0,0,0,0,0.00,0.00,0.00,0.00
2014-04-12 12:10:00,2,13513,61,0.03,2,2,0,2,7475,18574,3967,14313,0,78,31,78,0.00,0.10,0.03,0.03
2014-04-12 12:20:00,2,6704,73,0.15,2,2,0,2,4676,9816,1565,6638,71,77,3,71,0.05,0.25,0.06,0.17
2014-04-12 12:30:00,2,5510,72,0.14,2,2,0,2,4712,6609,626,5429,71,77,2,71,0.00,0.40,0.13,0.10
2014-04-12 12:40:00,2,7280,78,0.01,2,2,0,2,6492,8239,551,7240,78,78,0,78,0.00,0.05,0.02,0.00
2014-04-12 12:50:00,2,8486,78,0.01,2,2,0,2,7838,9406,520,8316,78,78,0,78,0.00,0.05,0.02,0.00
2014-04-12 13:00:00,2,5912,78,0.09,2,2,0,2,3301,8680,1828,6204,78,78,0,78,0.00,0.35,0.13,0.03
2014-04-12 13:10:00,2,2884,72,0.60,2,2,0,2,2226,4027,492,2882,71,77,2,71,0.30,1.00,0.20,0.62
2014-04-12 13:20:00,2,2099,71,1.43,2,2,0,2,1875,2369,165,2072,71,71,0,71,0.75,3.05,0.63,1.20
2014-04-12 13:30:00,2,2765,71,0.74,2,2,0,2,2040,3673,538,2589,71,71,0,71,0.35,1.25,0.25,0.73
2014-04-12 13:40:00,2,2607,71,0.68,2,2,0,2,2021,3345,434,2584,71,71,0,71,0.40,1.05,0.23,0.60
2014-04-12 13:50:00,2,2392,71,0.97,2,2,0,2,1669,2759,395,2558,71,71,0,71,0.35,1.85,0.52,0.70
2014-04-12 14:00:00,2,2291,71,0.84,2,2,0,2,1990,2495,141,2337,71,71,0,71,0.65,1.05,0.11,0.88
2014-04-12 14:10:00,2,2088,71,0.90,2,2,0,2,1708,2406,186,2080,71,71,0,71,0.70,1.40,0.19,0.85
2014-04-12 14:20:00,2,1922,71,1.43,2,2,0,2,1531,2258,194,1899,71,71,0,71,1.00,2.40,0.39,1.45
2014-04-12 14:30:00,2,1316,71,2.42,2,2,0,2,1074,1609,163,1298,71,71,0,71,1.65,3.35,0.55,2.35
2014-04-12 14:40:00,2,1295,71,2.85,2,2,0,2,980,1521,168,1363,71,71,0,71,1.65,4.35,0.88,2.53
2014-04-12 14:50:00,2,1262,71,3.15,2,2,0,2,1062,1624,178,1206,71,71,0,71,1.60,4.35,0.82,3.15
2014-04-12 15:00:00,2,1726,71,2.47,2,2,0,2,1575,1999,119,1700,71,71,0,71,1.90,3.15,0.42,2.48
2014-04-12 15:10:00,2,1400,71,2.84,2,2,0,2,1161,1743,186,1347,71,71,0,71,2.05,3.70,0.50,2.88
2014-04-12 15:20:00,2,1089,71,4.04,2,2,0,2,931,1310,122,1073,71,71,0,71,2.45,5.40,1.01,4.10
2014-04-12 15:30:00,2,1156,71,2.62,2,2,0,2,1033,1383,97,1122,71,71,0,71,1.50,3.10,0.46,2.70
2014-04-12 15:40:00,2,1002,71,5.92,2,2,0,2,611,1391,293,1000,71,72,0,71,1.75,12.05,3.76,5.05
2014-04-12 15:50:00,2,730,72,10.36,2,2,0,2,634,834,59,736,72,72,0,72,8.45,12.30,1.25,10.38
2014-04-12 16:00:00,2,862,72,8.58,2,2,0,2,716,1057,103,860,71,72,0,72,5.20,12.00,1.86,8.65
2014-04-12 16:10:00,2,1438,71,2.54,2,2,0,2,1157,1705,179,1407,71,71,0,71,1.40,5.55,1.18,2.38
2014-04-12 16:20:00,2,1543,71,1.74,2,2,0,2,1435,1637,62,1554,71,71,0,71,1.35,2.40,0.33,1.65
2014-04-12 16:30:00,2,1304,71,2.17,2,2,0,2,1147,1556,130,1276,71,71,0,71,1.60,2.90,0.36,2.10
2014-04-12 16:40:00,2,1304,71,1.70,2,2,0,2,1169,1556,128,1266,71,71,0,71,1.10,2.20,0.33,1.80
2014-04-12 16:50:00,2,1629,71,1.28,2,2,0,2,1434,1833,136,1658,71,71,0,71,1.05,1.85,0.25,1.18
2014-04-12 17:00:00,2,1249,71,2.29,2,2,0,2,1125,1361,55,1252,71,71,0,71,1.80,3.00,0.42,2.20
2014-04-12 17:10:00,2,1211,71,2.42,2,2,0,2,1075,1362,106,1194,71,71,0,71,1.85,3.20,0.51,2.22
2014-04-12 17:20:00,2,1193,71,2.79,2,2,0,2,1025,1311,87,1196,71,71,0,71,2.15,3.85,0.53,2.58
2014-04-12 17:30:00,2,1439,71,2.29,2,2,0,2,1249,1655,117,1424,71,71,0,71,1.65,2.95,0.43,2.20
2014-04-12 17:40:00,2,1848,71,1.76,2,2,0,2,1527,2163,222,1844,71,71,0,71,1.20,2.35,0.44,1.73
2014-04-12 17:50:00,2,2129,71,1.17,2,2,0,2,2062,2181,39,2126,71,71,0,71,0.90,1.50,0.21,1.10
2014-04-12 18:00:00,2,2039,71,1.28,2,2,0,2,1947,2164,62,2021,71,71,0,71,0.85,2.00,0.31,1.27
2014-04-12 18:10:00,2,2145,71,1.15,2,2,0,2,2002,2373,130,2110,71,71,0,71,0.90,1.35,0.14,1.15
2014-04-12 18:20:00,2,2266,71,0.97,2,2,0,2,2130,2386,87,2258,71,71,0,71,0.85,1.25,0.14,0.90
2014-04-12 18:30:00,2,2114,71,1.29,2,2,0,2,1812,2404,199,2176,71,71,0,71,0.90,1.70,0.28,1.25
2014-04-12 18:40:00,2,2214,71,1.11,2,2,0,2,1729,2663,303,2193,71,71,0,71,0.65,1.70,0.34,1.10
2014-04-12 18:50:00,2,2769,71,0.67,2,2,0,2,2551,2991,127,2799,71,71,0,71,0.35,1.10,0.22,0.60
2014-04-12 19:00:00,2,2335,71,0.72,2,2,0,2,1916,2717,285,2344,71,71,0,71,0.40,1.00,0.19,0.68
2014-04-12 19:10:00,2,1728,71,1.20,2,2,0,2,1654,1818,51,1726,71,71,0,71,0.80,1.40,0.16,1.25
2014-04-12 19:20:00,2,1424,71,1.28,2,2,0,2,1237,1710,170,1350,71,71,0,71,1.10,1.45,0.11,1.30
2014-04-12 19:30:00,2,1548,71,0.97,2,2,0,2,1308,1742,142,1550,71,71,0,71,0.55,1.50,0.27,0.95
2014-04-12 19:40:00,2,1681,71,0.63,2,2,0,2,1495,2154,169,1648,71,71,0,71,0.25,0.95,0.24,0.60
2014-04-12 19:50:00,2,1382,71,0.98,2,2,0,2,990,1731,237,1400,71,71,0,71,0.65,1.35,0.20,0.97
2014-04-12 20:00:00,2,2099,71,0.57,2,2,0,2,1200,3861,647,2042,71,71,0,71,0.35,1.00,0.21,0.55
2014-04-12 20:10:00,2,3473,72,0.41,2,2,0,2,1435,9067,2525,2122,71,77,2,71,0.00,0.75,0.30,0.52
2014-04-12 20:20:00,2,2982,75,0.36,2,2,0,2,2575,4102,494,2777,71,78,3,77,0.10,0.55,0.12,0.40
2014-04-12 20:30:00,2,2485,75,0.55,2,2,0,2,1974,3160,435,2434,71,77,3,77,0.35,0.85,0.15,0.53
2014-04-12 20:40:00,1,2023,77,0.57,1,2,0,1,1871,2184,111,2019,77,77,0,77,0.45,0.75,0.11,0.55
2014-04-12 20:50:00,1,,,,1,1,0,1,,,,,,,,,,,,
2014-04-12 21:00:00,1,,,,1,1,0,1,,,,,,,,,,,,
2014-04-12 21:10:00,2,6848,77,0.03,1,2,0,2,5485,8572,994,6670,77,77,0,77,0.00,0.05,0.02,0.05
2014-04-12 21:20:00,2,2783,75,0.42,2,2,0,2,1839,4591,829,2756,71,77,3,77,0.10,0.80,0.26,0.35
2014-04-12 21:30:00,2,2704,73,0.62,2,2,0,2,2284,3494,356,2646,71,77,3,71,0.35,0.75,0.12,0.62
2014-04-12 21:40:00,2,8485,74,0.06,1,2,0,2,0,13217,4267,9310,71,77,3,71,0.00,0.35,0.12,0.00
2014-04-12 21:50:00,1,8294,,0.00,1,2,0,1,0,16587,8294,8294,,,,,0.00,0.00,0.00,0.00
2014-04-12 22:00:00,1,,,,1,1,0,1,,,,,,,,,,,,
2014-04-12 22:10:00,1,,,,1,1,0,1,,,,,,,,,,,,
2014-04-12 22:20:00,1,,,,1,1,0,1,,,,,,,,,,,,
2014-04-12 22:30:00,1,,,,1,1,0,1,,,,,,,,,,,,
2014-04-12 22:40:00,1,,,,1,1,0,1,,,,,,,,,,,,
2014-04-12 22:50:00,1,,,,1,1,0,1,,,,,,,,,,,,
2014-04-12 23:00:00,1,,,,1,1,0,1,,,,,,,,,,,,
2014-04-12 23:10:00,1,,,,1,1,0,1,,,,,,,,,,,,
2014-04-12 23:20:00,1,,,,1,1,0,1,,,,,,,,,,,,
2014-04-12 23:30:00,1,,,,1,1,0,1,,,,,,,,,,,,
2014-04-12 23:40:00,1,,,,1,1,0,1,,,,,,,,,,,,
2014-04-12 23:50:00,1,,,,1,1,0,1,,,,,,,,,,,,
